Location: Bégole
(43.1574°N, 0.3291°E)
Time: 03:26:41
(UTC+00:00)

Meteor 2-17 Rocket - Pass Details

Date: 28 January 2023
Orbit: 935 x 956 km, 82.5° (Epoch: 27 March)

Event Time Altitude Azimuth Distance (km) Brightness Sun altitude
Rises 17:46:44 0° 354° (N) 3,642 7.4 -7.9°
Reaches altitude 10° 17:49:17 10° 358° (N) 2,694 6.7 -8.4°
Maximum altitude 17:55:24 64° 79° (E) 1,058 4.5 -9.4°
Drops below altitude 10° 18:01:29 10° 161° (SSE) 2,678 6.8 -10.5°
Sets 18:04:00 0° 164° (SSE) 3,619 7.5 -10.9°
